Tracking 25405 objects as of 26-Jan-2022
HD Live streaming from Space Station
objects crossing your sky now

INSAT 2B

Track INSAT 2B now!
INSAT 2B is classified as:


NORAD ID: 22724
Int'l Code: 1993-048B
Perigee: 35,823.5 km
Apogee: 35,927.1 km
Inclination: 13.9 °
Period: 1,440.3 minutes
Semi major axis: 42246 km
RCS: 19.9526 m2 (large)
Launch date: July 22, 1993
Source: India (IND)
Launch site: FRENCH GUIANA (FRGUI)

Second of Spain's communications satellites; 15 multi-frequency transponders
aabbcc
Your satellite tracking list
Your tracking list is empty




NASA's NSSDC Master Catalog

Two Line Element Set (TLE):
1 22724U 93048B   22026.66534157  .00000055  00000-0  00000+0 0  9999
2 22724  13.9329  14.5259 0012264 178.9779   4.2537  0.99981676104567
Source of the keplerian elements: AFSPC